TimeCST,TemperatureF,Dew PointF,Humidity,Sea Level PressureIn,VisibilityMPH,Wind Direction,Wind SpeedMPH,Gust SpeedMPH,PrecipitationIn,Events,Conditions,WindDirDegrees,DateUTC
12:05 AM,39.2,33.8,81,30.08,8.0,North,3.5,-,N/A,,Overcast,350,2011-11-22 06:05:00
12:48 AM,39.2,35.6,87,30.07,8.0,North,3.5,-,0.00,,Overcast,360,2011-11-22 06:48:00
12:52 AM,39.0,35.1,86,30.09,7.0,North,3.5,-,0.00,,Overcast,360,2011-11-22 06:52:00
1:52 AM,39.0,36.0,89,30.08,7.0,NNW,3.5,-,0.00,Rain,Light Rain,340,2011-11-22 07:52:00
2:52 AM,37.9,35.1,89,30.08,6.0,North,3.5,-,0.00,Rain,Light Rain,350,2011-11-22 08:52:00
3:52 AM,37.9,36.0,93,30.06,5.0,Calm,Calm,-,0.00,Rain,Light Rain,0,2011-11-22 09:52:00
4:52 AM,37.9,37.0,97,30.06,5.0,Calm,Calm,-,0.03,Rain,Light Rain,0,2011-11-22 10:52:00
5:24 AM,37.4,37.4,100,30.03,4.0,Calm,Calm,-,0.00,Rain,Light Rain,0,2011-11-22 11:24:00
5:33 AM,37.4,37.4,100,30.04,4.0,North,3.5,-,N/A,,Overcast,360,2011-11-22 11:33:00
5:52 AM,37.9,37.0,97,30.06,4.0,NNW,3.5,-,0.00,Rain,Light Rain,340,2011-11-22 11:52:00
6:12 AM,37.4,37.4,100,30.04,5.0,NNW,3.5,-,0.00,Rain,Light Rain,330,2011-11-22 12:12:00
6:52 AM,37.9,36.0,93,30.08,6.0,NW,5.8,-,0.01,Rain,Light Rain,320,2011-11-22 12:52:00
7:52 AM,37.9,36.0,93,30.09,6.0,NNW,3.5,-,0.00,,Overcast,340,2011-11-22 13:52:00
8:01 AM,37.4,35.6,93,30.07,5.0,Calm,Calm,-,N/A,,Overcast,0,2011-11-22 14:01:00
8:31 AM,37.4,35.6,93,30.07,4.0,Variable,3.5,-,N/A,,Overcast,0,2011-11-22 14:31:00
8:40 AM,37.4,35.6,93,30.07,4.0,NNW,4.6,-,N/A,,Overcast,340,2011-11-22 14:40:00
8:52 AM,37.9,37.0,97,30.09,4.0,North,3.5,-,N/A,,Overcast,350,2011-11-22 14:52:00
9:52 AM,39.2,37.4,93,30.08,4.0,NNW,3.5,-,N/A,,Overcast,330,2011-11-22 15:52:00
10:17 AM,39.2,37.4,93,30.08,5.0,North,4.6,-,N/A,,Overcast,360,2011-11-22 16:17:00
10:41 AM,39.2,37.4,93,30.09,5.0,Calm,Calm,-,N/A,,Overcast,0,2011-11-22 16:41:00
10:52 AM,39.9,37.0,89,30.11,5.0,NNW,4.6,-,N/A,,Overcast,330,2011-11-22 16:52:00
11:52 AM,41.0,37.0,86,30.09,5.0,Calm,Calm,-,N/A,,Overcast,0,2011-11-22 17:52:00
12:52 PM,41.0,36.0,82,30.09,6.0,NNW,3.5,-,N/A,,Haze,340,2011-11-22 18:52:00
1:52 PM,41.0,36.0,82,30.09,6.0,WNW,4.6,-,N/A,,Haze,290,2011-11-22 19:52:00
2:52 PM,39.9,36.0,86,30.10,7.0,Variable,4.6,-,N/A,,Overcast,0,2011-11-22 20:52:00
3:52 PM,42.8,35.6,76,30.07,10.0,Calm,Calm,-,N/A,,Overcast,0,2011-11-22 21:52:00
4:12 PM,42.8,35.6,76,30.07,10.0,Calm,Calm,-,N/A,,Scattered Clouds,0,2011-11-22 22:12:00
4:52 PM,39.0,36.0,89,30.10,10.0,Calm,Calm,-,N/A,,Clear,0,2011-11-22 22:52:00
5:52 PM,33.1,30.9,92,30.12,10.0,Calm,Calm,-,N/A,,Clear,0,2011-11-22 23:52:00
6:52 PM,30.2,28.4,93,30.11,5.0,Calm,Calm,-,N/A,,Clear,0,2011-11-23 00:52:00
7:52 PM,30.9,30.0,96,30.14,4.0,Calm,Calm,-,N/A,,Clear,0,2011-11-23 01:52:00
8:52 PM,28.9,28.0,96,30.17,4.0,Calm,Calm,-,N/A,,Clear,0,2011-11-23 02:52:00
9:52 PM,28.0,27.0,96,30.18,3.0,Calm,Calm,-,N/A,,Partly Cloudy,0,2011-11-23 03:52:00
10:52 PM,27.0,27.0,100,30.19,5.0,Calm,Calm,-,N/A,,Scattered Clouds,0,2011-11-23 04:52:00
11:19 PM,26.6,26.6,100,30.17,3.0,Calm,Calm,-,N/A,,Mostly Cloudy,0,2011-11-23 05:19:00
11:42 PM,26.6,26.6,100,30.17,1.8,Calm,Calm,-,N/A,,Overcast,0,2011-11-23 05:42:00
11:52 PM,28.0,27.0,96,30.19,0.5,Calm,Calm,-,N/A,Fog,Light Freezing Fog,0,2011-11-23 05:52:00